weather.gov     
National Weather Service

Terminal Aerodrome Forecast
NWS Homepage
This page is being discontinued on March 12, 2014.
The same data is available at this site. Please update your bookmarks.
Thank you, and we apologize for the inconvenience.
Please send an email to SR-SRH.Webmaster@noaa.gov with any concerns.


Current Version
Previous Version:    01  02  03  04  05  06  07  08  09  10  11  12  13  14  15  16  17  18  19  20  21  22  23  
[Printable]
902
FTUS43 KGLD 230520
TAFGLD
TAF
KGLD 230520Z 2306/2406 26011KT P6SM BKN100
     FM230800 31010G18KT P6SM BKN080
     FM231100 34028G38KT P6SM -SHSNRA SCT040 OVC080
     FM231800 33028G38KT P6SM SCT040 BKN080=


902
FTUS43 KGLD 230520
TAFGLD
TAF
KGLD 230520Z 2306/2406 26011KT P6SM BKN100
     FM230800 31010G18KT P6SM BKN080
     FM231100 34028G38KT P6SM -SHSNRA SCT040 OVC080
     FM231800 33028G38KT P6SM SCT040 BKN080=




U.S. Dept. of Commerce
NOAA National Weather Service
1325 East West Highway
Silver Spring, MD 20910
E-mail: w-nws.webmaster@noaa.gov
Page last modified: May 16, 2007
NATIONAL WEATHER SERVICE: for Safety, for Work, for Fun - FOR LIFE